Webb City, MO

12:36 AM CDT on August 29, 2016 (GMT -0500)
Joplin Regional

Weather History for KJLN - March, 2014

Change the Weather History Date:

Friday, March 7, 2014

  Actual Average Record
Temperature  
Mean Temperature 48 °F 46 °F  
Max Temperature 63 °F 57 °F 79 °F (2000)
Min Temperature 32 °F 35 °F 7 °F (1989)
Degree Days  
Heating Degree Days 17 19  
Month to date heating degree days 249 140  
Since 1 July heating degree days 4098 3394  
Cooling Degree Days 0 0  
Month to date cooling degree days 0 0  
Year to date cooling degree days 0 1  
Moisture  
Dew Point 28 °F    
Average Humidity 48    
Maximum Humidity 69    
Minimum Humidity 27    
Precipitation  
Precipitation 0.00 in 0.11 in 0.46 in (1995)
Month to date precipitation 0.21 0.73  
Year to date precipitation 1.06 5.08  
Sea Level Pressure  
Sea Level Pressure 29.92 in    
Wind  
Wind Speed 9 mph (South)    
Max Wind Speed 23 mph    
Max Gust Speed 27 mph    
Visibility 10 miles    
Events      
T = Trace of Precipitation, MM = Missing Value Source: NWS Daily Summary

Daily Weather History Graph

Daily Weather History Graph

Search for Another Location

Airport or City:

Trip Planner

Search our weather history database for the weather conditions in past years. The results will help you decide how hot, cold, wet, or windy it might be!

Date:

Astronomy

Mar. 07, 2014 Rise Set
Actual Time 6:40 AM CST 6:17 PM CST
Civil Twilight 6:14 AM CST 6:43 PM CST
Nautical Twilight 5:44 AM CST 7:14 PM CST
Astronomical Twilight 5:14 AM CST 7:44 PM CST
Moon 10:42 AM CST (3/7) 12:15 AM CST (3/7)
Length of Visible Light 12h 29m
Length of Day
11h 37m
Waxing Crescent, 42% of the Moon is Illuminated
Mar 7
Waxing Crescent
Mar 8
First Quarter
Mar 16
Full
Mar 23
Last Quarter
Mar 30
New

Hourly Weather History & Observations

Time (CST) Temp. Windchill Dew Point Humidity Pressure Visibility Wind Dir Wind Speed Gust Speed Precip Events Conditions
12:53 AM 34.0 °F 28.0 °F 21.9 °F 61% 30.01 in 10.0 mi SSE 6.9 mph - N/A   Clear
1:53 AM 37.0 °F 31.0 °F 21.9 °F 54% 29.99 in 10.0 mi SSE 8.1 mph - N/A   Clear
2:53 AM 37.0 °F 32.4 °F 23.0 °F 57% 29.97 in 10.0 mi SE 5.8 mph - N/A   Clear
3:53 AM 33.1 °F 28.7 °F 21.9 °F 64% 29.97 in 10.0 mi SSE 4.6 mph - N/A   Clear
4:53 AM 33.1 °F 26.1 °F 24.1 °F 70% 29.97 in 10.0 mi SSE 8.1 mph - N/A   Clear
5:53 AM 33.1 °F 27.7 °F 25.0 °F 72% 29.97 in 9.0 mi South 5.8 mph - N/A   Clear
6:53 AM 34.0 °F 27.2 °F 25.0 °F 70% 29.97 in 9.0 mi South 8.1 mph - N/A   Clear
7:53 AM 39.9 °F 33.4 °F 27.0 °F 60% 29.96 in 10.0 mi South 10.4 mph - N/A   Clear
8:53 AM 48.0 °F - 28.9 °F 48% 29.95 in 10.0 mi South 13.8 mph - N/A   Clear
9:53 AM 52.0 °F - 30.0 °F 43% 29.94 in 10.0 mi South 19.6 mph 26.5 mph N/A   Clear
10:53 AM 55.9 °F - 30.0 °F 37% 29.93 in 10.0 mi SSW 13.8 mph - N/A   Clear
11:53 AM 59.0 °F - 30.0 °F 33% 29.91 in 10.0 mi SSW 12.7 mph - N/A   Clear
12:53 PM 60.1 °F - 30.0 °F 32% 29.89 in 10.0 mi South 13.8 mph - N/A   Clear
1:53 PM 62.1 °F - 28.9 °F 29% 29.86 in 10.0 mi SSW 13.8 mph - N/A   Clear
2:53 PM 62.1 °F - 28.0 °F 28% 29.85 in 10.0 mi South 11.5 mph - N/A   Clear
3:53 PM 62.1 °F - 28.9 °F 29% 29.86 in 10.0 mi South 13.8 mph - N/A   Clear
4:53 PM 59.0 °F - 28.9 °F 32% 29.84 in 10.0 mi SSE 13.8 mph - N/A   Clear
5:53 PM 57.9 °F - 30.0 °F 35% 29.84 in 10.0 mi South 8.1 mph - N/A   Overcast
6:53 PM 55.9 °F - 30.0 °F 37% 29.86 in 10.0 mi South 6.9 mph - N/A   Scattered Clouds
7:53 PM 53.1 °F - 30.9 °F 43% 29.89 in 10.0 mi SSW 5.8 mph - N/A   Partly Cloudy
8:53 PM 52.0 °F - 30.9 °F 45% 29.92 in 10.0 mi Calm Calm - N/A   Scattered Clouds
9:53 PM 48.9 °F - 30.9 °F 50% 29.93 in 10.0 mi Calm Calm - N/A   Clear
10:53 PM 45.0 °F - 32.0 °F 60% 29.95 in 10.0 mi Calm Calm - N/A   Clear
11:53 PM 43.0 °F - 32.0 °F 65% 29.96 in 10.0 mi Calm Calm - N/A   Mostly Cloudy